This is the latest recevied weather packets stored in our database for station/object K0SNA. If no packets are shown the sender has not sent any weather packets the latest 10 day(s).
| Time | Temp. | Humidity | Pressure | Rain* | Wind** | Luminosity | Snow |
|---|---|---|---|---|---|---|---|
| 1778161181 | 7.22° C | 52% | 1013.8 hPa | 0 mm | - | 257 W/m² | - |
| 1778160877 | 7.78° C | 57% | 1013.8 hPa | 0 mm | - | 135 W/m² | - |
| 1778160576 | 6.67° C | 59% | 1013.8 hPa | 0 mm | - | 42 W/m² | - |
| 1778160271 | 6.67° C | 58% | 1013.7 hPa | 0 mm | - | 41 W/m² | - |
| 1778159968 | 6.67° C | 57% | 1013.9 hPa | 0 mm | - | 40 W/m² | - |
| 1778159665 | 6.67° C | 59% | 1013.7 hPa | 0 mm | - | 40 W/m² | - |
| 1778159362 | 6.67° C | 62% | 1013.9 hPa | 0 mm | - | 50 W/m² | - |
| 1778159059 | 5.56° C | 63% | 1013.7 hPa | 0 mm | - | 38 W/m² | - |
| 1778158758 | 5° C | 67% | 1013.9 hPa | 0 mm | - | 41 W/m² | - |
| 1778158455 | 4.44° C | 68% | 1013.9 hPa | 0 mm | - | 79 W/m² | - |
| 1778158153 | 5° C | 68% | 1014 hPa | 0 mm | - | 133 W/m² | - |
| 1778157848 | 4.44° C | 70% | 1014 hPa | 0 mm | - | 125 W/m² | - |
| 1778157547 | 4.44° C | 70% | 1013.9 hPa | 0 mm | - | 115 W/m² | - |
| 1778157244 | 3.89° C | 75% | 1014 hPa | 0 mm | - | 105 W/m² | - |
| 1778156940 | 2.78° C | 79% | 1014 hPa | 0 mm | - | 95 W/m² | - |
| 1778156635 | 1.67° C | 81% | 1014 hPa | 0 mm | - | 84 W/m² | - |
| 1778156332 | 1.67° C | 83% | 1014 hPa | 0 mm | - | 55 W/m² | - |
| 1778156027 | 1.11° C | 86% | 1014.1 hPa | 0 mm | - | 47 W/m² | - |
| 1778155725 | 0.56° C | 87% | 1014.1 hPa | 0 mm | - | 42 W/m² | - |
| 1778155421 | 0° C | 88% | 1014.1 hPa | 0 mm | - | 35 W/m² | - |
| 1778155117 | -0.56° C | 89% | 1013.9 hPa | 0 mm | - | 34 W/m² | - |
| 1778154813 | -1.11° C | 90% | 1014.1 hPa | 0 mm | - | 27 W/m² | - |
| 1778154508 | -1.11° C | 90% | 1014.1 hPa | 0 mm | - | 22 W/m² | - |
| 1778154206 | -1.11° C | 90% | 1014 hPa | 0 mm | - | 18 W/m² | - |
| 1778153904 | -1.67° C | 90% | 1014 hPa | 0 mm | - | 17 W/m² | - |
* Rain latest hour (hover to see other rain measurements)
** Current wind speed in m/s (hover to see current wind gust speed)